EW2295 Weather Reports


time (UTC)temp
F
wind
direction
speed
knots
gust
knots
rain 1hr
in
rain 24hr
in
rain mn
in
humidity
%
barometer
mb
20260902161606 67 0 0.0 3.5 0.00 0.00 0.00 66 1021.1
20260902161043 67 0 0.0 3.5 0.00 0.00 0.00 67 1021.1
20260902160542 67 0 0.0 0.0 0.00 0.00 0.00 68 1021.2
20260902160105 67 0 0.0 0.0 0.00 0.00 0.00 66 1021.2
20260902155546 68 0 0.0 0.0 0.00 0.00 0.00 67 1021.1
20260902155045 68 0 0.0 7.0 0.00 0.00 0.00 65 1021.2
20260902154604 68 0 0.0 7.0 0.00 0.00 0.00 64 1021.1
20260902154046 68 0 0.9 7.0 0.00 0.00 0.00 65 1021.1
20260902153546 68 0 1.7 7.0 0.00 0.00 0.00 64 1021.3
20260902153104 68 0 0.0 7.8 0.00 0.00 0.00 64 1021.2
20260902152546 69 234 0.0 7.8 0.00 0.00 0.00 64 1021.2
20260902152046 69 0 1.7 7.8 0.00 0.00 0.00 64 1021.2
20260902151602 68 0 0.9 7.0 0.00 0.00 0.00 63 1021.2
20260902151047 68 236 0.0 8.7 0.00 0.00 0.00 64 1021.3
20260902150546 68 0 2.6 8.7 0.00 0.00 0.00 64 1021.2
20260902150106 69 209 0.0 7.8 0.00 0.00 0.00 63 1021.3
20260902145546 69 249 0.9 7.8 0.00 0.00 0.00 62 1021.4
20260902145045 69 0 0.9 5.2 0.00 0.00 0.00 63 1021.4
20260902144556 69 0 0.0 0.9 0.00 0.00 0.00 63 1021.3
20260902144047 69 0 0.0 5.2 0.00 0.00 0.00 63 1021.3
20260902143550 69 0 0.9 5.2 0.00 0.00 0.00 63 1021.3
20260902143109 68 0 0.0 5.2 0.00 0.00 0.00 62 1021.3
20260902142547 68 0 0.0 4.3 0.00 0.00 0.00 65 1021.2
20260902142047 68 0 0.9 5.2 0.00 0.00 0.00 63 1021.3
20260902141610 68 0 0.0 5.2 0.00 0.00 0.00 62 1021.4
20260902141046 68 0 0.0 7.0 0.00 0.00 0.00 62 1021.2
20260902140547 69 0 0.0 7.0 0.00 0.00 0.00 61 1021.2
20260902135546 69 0 0.0 1.7 0.00 0.00 0.00 60 1021.3
20260902135046 69 0 0.0 6.1 0.00 0.00 0.00 60 1021.1
20260902134558 68 0 0.0 6.1 0.00 0.00 0.00 60 1021.1
20260902134045 68 0 0.0 3.5 0.00 0.00 0.00 60 1021.2
20260902133547 68 0 0.0 6.1 0.00 0.00 0.00 59 1021.1
20260902133106 69 0 0.0 7.0 0.00 0.00 0.00 60 1021.2
20260902132544 69 257 0.0 7.0 0.00 0.00 0.00 58 1021.2
20260902132047 69 0 0.0 8.7 0.00 0.00 0.00 58 1021.2
20260902131628 69 249 2.6 8.7 0.00 0.00 0.00 56 1021.2
20260902131046 70 0 0.0 6.1 0.00 0.00 0.00 59 1021.1
20260902130546 69 0 0.0 6.1 0.00 0.00 0.00 58 1021.2
20260902130059 69 0 0.0 6.1 0.00 0.00 0.00 58 1021.3
20260902125546 70 0 0.0 7.0 0.00 0.00 0.00 60 1021.3
20260902125047 70 0 0.0 7.0 0.00 0.00 0.00 59 1021.3
20260902124609 69 0 0.0 6.1 0.00 0.00 0.00 59 1021.4
20260902124046 71 0 1.7 8.7 0.00 0.00 0.00 60 1021.4
20260902123550 70 0 0.9 8.7 0.00 0.00 0.00 60 1021.5
20260902123152 69 0 3.5 8.7 0.00 0.00 0.00 61 1021.4
20260902122549 68 233 0.0 7.8 0.00 0.00 0.00 62 1021.4
20260902122046 68 0 1.7 7.8 0.00 0.00 0.00 63 1021.5
20260902121602 67 0 0.0 7.8 0.00 0.00 0.00 64 1021.6
20260902121046 67 259 0.9 7.8 0.00 0.00 0.00 65 1021.4
20260902120545 68 223 0.0 5.2 0.00 0.00 0.00 66 1021.4
20260902115548 67 0 0.9 6.1 0.00 0.00 0.00 64 1021.3
20260902115045 68 0 0.0 9.6 0.00 0.00 0.00 63 1021.4
20260902114557 68 0 1.7 9.6 0.00 0.00 0.00 62 1021.4
20260902114044 68 227 1.7 7.0 0.00 0.00 0.00 63 1021.4
20260902113542 68 0 0.0 7.0 0.00 0.00 0.00 63 1021.4
20260902113102 68 242 0.9 7.0 0.00 0.00 0.00 62 1021.4
20260902112544 68 0 1.7 7.0 0.00 0.00 0.00 60 1021.5
20260902112043 67 195 0.0 11.3 0.00 0.00 0.00 64 1021.5
20260902111602 67 0 0.0 11.3 0.00 0.00 0.00 63 1021.4
20260902111042 68 0 2.6 11.3 0.00 0.00 0.00 62 1021.4
20260902110542 69 238 1.7 8.7 0.00 0.00 0.00 62 1021.4
20260902110111 68 0 0.9 9.6 0.00 0.00 0.00 63 1021.4
20260902105545 68 229 3.5 11.3 0.00 0.00 0.00 63 1021.5
20260902105042 68 0 0.9 11.3 0.00 0.00 0.00 63 1021.4
20260902104608 68 219 0.9 7.8 0.00 0.00 0.00 66 1021.5
20260902104045 68 0 0.9 7.0 0.00 0.00 0.00 63 1021.5
20260902103541 68 224 0.0 6.1 0.00 0.00 0.00 64 1021.4
20260902103103 67 0 0.0 6.1 0.00 0.00 0.00 66 1021.5
20260902102542 66 0 0.0 8.7 0.00 0.00 0.00 65 1021.5
20260902102042 66 0 0.0 10.4 0.00 0.00 0.00 64 1021.5
20260902101558 66 225 2.6 10.4 0.00 0.00 0.00 66 1021.5
20260902101046 66 0 0.9 6.1 0.00 0.00 0.00 68 1021.5
20260902100546 67 0 0.0 7.0 0.00 0.00 0.00 64 1021.5
20260902095546 67 0 0.9 6.1 0.00 0.00 0.00 68 1021.4
20260902095044 67 0 0.0 4.3 0.00 0.00 0.00 72 1021.3
20260902094605 67 0 0.0 4.3 0.00 0.00 0.00 71 1021.4
20260902094045 66 0 0.0 4.3 0.00 0.00 0.00 72 1021.4
20260902093542 67 0 0.0 4.3 0.00 0.00 0.00 69 1021.5
20260902093100 67 0 0.0 1.7 0.00 0.00 0.00 74 1021.5
20260902092545 66 0 0.0 2.6 0.00 0.00 0.00 74 1021.6
20260902092042 65 0 0.0 4.3 0.00 0.00 0.00 74 1021.5
20260902091610 65 0 0.0 6.1 0.00 0.00 0.00 74 1021.5
20260902091045 65 218 0.0 6.1 0.00 0.00 0.00 73 1021.4
20260902090549 65 0 0.0 0.0 0.00 0.00 0.00 74 1021.5
20260902090109 65 0 0.0 0.0 0.00 0.00 0.00 74 1021.5
20260902085546 65 0 0.0 0.0 0.00 0.00 0.00 74 1021.5
20260902085046 65 0 0.0 0.0 0.00 0.00 0.00 74 1021.5
20260902084555 65 0 0.0 3.5 0.00 0.00 0.00 73 1021.5
20260902084046 66 0 0.0 3.5 0.00 0.00 0.00 73 1021.5
20260902083546 66 0 0.0 0.0 0.00 0.00 0.00 73 1021.5
20260902083058 66 0 0.0 3.5 0.00 0.00 0.00 75 1021.4
20260902082546 65 0 0.0 6.1 0.00 0.00 0.00 75 1021.5
20260902082046 65 0 0.0 6.1 0.00 0.00 0.00 74 1021.6
20260902081601 65 0 0.0 6.1 0.00 0.00 0.00 75 1021.5
20260902081046 65 0 0.0 6.1 0.00 0.00 0.00 76 1021.4
20260902080547 65 0 0.0 5.2 0.00 0.00 0.00 77 1021.4
20260902080100 64 0 0.9 5.2 0.00 0.00 0.00 79 1021.3
20260902075546 64 0 0.0 0.0 0.00 0.00 0.00 80 1021.2
20260902075047 63 0 0.0 0.0 0.00 0.00 0.00 80 1021.3
20260902074601 63 0 0.0 0.0 0.00 0.00 0.00 83 1021.1
20260902074048 63 0 0.0 0.0 0.00 0.00 0.00 83 1021.1
20260902073546 63 0 0.0 0.0 0.00 0.00 0.00 84 1021.3
20260902073103 63 0 0.0 0.0 0.00 0.00 0.00 83 1021.3
20260902072545 62 0 0.0 0.0 0.00 0.00 0.00 86 1021.2
20260902072048 61 0 0.0 0.0 0.00 0.00 0.00 88 1021.1
20260902071603 61 0 0.0 0.0 0.00 0.00 0.00 87 1021.0
20260902071046 61 0 0.0 0.0 0.00 0.00 0.00 88 1021.0
20260902070545 61 0 0.0 0.0 0.00 0.00 0.00 89 1021.0
20260902065548 60 0 0.0 0.0 0.00 0.00 0.00 91 1020.9
20260902065046 59 0 0.0 0.0 0.00 0.00 0.00 92 1020.8
20260902064606 59 0 0.0 0.0 0.00 0.00 0.00 93 1020.8
20260902064046 58 0 0.0 0.0 0.00 0.00 0.00 93 1020.9
20260902063546 58 0 0.0 0.0 0.00 0.00 0.00 93 1020.8
20260902063104 58 0 0.0 0.0 0.00 0.00 0.00 93 1020.8
20260902062547 58 0 0.0 0.0 0.00 0.00 0.00 94 1020.6
20260902062047 58 0 0.0 0.0 0.00 0.00 0.00 94 1020.8
20260902061627 58 0 0.0 0.0 0.00 0.00 0.00 94 1020.8
20260902061048 58 0 0.0 0.0 0.00 0.00 0.00 94 1020.8
20260902060546 57 0 0.0 0.0 0.00 0.00 0.00 94 1020.8
20260902060115 57 0 0.0 0.0 0.00 0.00 0.00 94 1020.7
20260902055547 57 0 0.0 0.0 0.00 0.00 0.00 95 1020.8
20260902055042 57 0 0.0 0.0 0.00 0.00 0.00 94 1020.9
20260902054555 56 0 0.0 0.0 0.00 0.00 0.00 94 1020.9
20260902054044 56 0 0.0 0.0 0.00 0.00 0.00 94 1020.9
20260902053541 56 0 0.0 0.0 0.00 0.00 0.00 94 1020.8
20260902053102 56 0 0.0 0.0 0.00 0.00 0.00 94 1020.8
20260902052545 56 0 0.0 0.0 0.00 0.00 0.00 94 1020.9
20260902052041 56 0 0.0 0.0 0.00 0.00 0.00 94 1020.7
20260902051558 56 0 0.0 0.0 0.00 0.00 0.00 94 1020.7
20260902051042 56 0 0.0 0.0 0.00 0.00 0.00 94 1020.5
20260902050542 56 0 0.0 0.0 0.00 0.00 0.00 94 1020.6
20260902050059 56 0 0.0 0.0 0.00 0.00 0.00 94 1020.4
20260902045541 56 0 0.0 0.0 0.00 0.00 0.00 94 1020.4
20260902045044 56 0 0.0 0.0 0.00 0.00 0.00 93 1020.5
20260902044558 56 0 0.0 0.0 0.00 0.00 0.00 94 1020.5
20260902044045 56 0 0.0 0.0 0.00 0.00 0.00 94 1020.5
20260902043542 56 0 0.0 0.0 0.00 0.00 0.00 94 1020.5
20260902043106 56 0 0.0 0.0 0.00 0.00 0.00 94 1020.4
20260902042544 56 0 0.0 0.0 0.00 0.00 0.00 94 1020.5
20260902042042 56 0 0.0 0.0 0.00 0.00 0.00 94 1020.6
20260902041601 56 0 0.0 0.0 0.00 0.00 0.00 94 1020.6
20260902041042 55 0 0.0 0.0 0.00 0.00 0.00 94 1020.6
20260902040545 55 0 0.0 0.0 0.00 0.00 0.00 94 1020.6
20260902040100 55 0 0.0 0.0 0.00 0.00 0.00 94 1020.6
20260902035541 55 0 0.0 0.0 0.00 0.00 0.00 93 1020.6
20260902035041 55 0 0.0 0.0 0.00 0.00 0.00 93 1020.8
20260902034611 55 0 0.0 0.0 0.00 0.00 0.00 93 1020.6
20260902034041 55 0 0.0 0.0 0.00 0.00 0.00 94 1020.6
20260902033541 55 0 0.0 0.0 0.00 0.00 0.00 94 1020.6
20260902033100 55 0 0.0 0.0 0.00 0.00 0.00 93 1020.6
20260902032542 55 0 0.0 0.0 0.00 0.00 0.00 93 1020.6
20260902032042 55 0 0.0 0.0 0.00 0.00 0.00 93 1020.5
20260902031604 56 0 0.0 0.0 0.00 0.00 0.00 93 1020.5
20260902031042 56 0 0.0 0.0 0.00 0.00 0.00 93 1020.6
20260902030542 55 0 0.0 0.0 0.00 0.00 0.00 93 1020.7
20260902030105 55 0 0.0 0.0 0.00 0.00 0.00 93 1020.7
20260902025543 55 0 0.0 0.0 0.00 0.00 0.00 93 1020.8
20260902025047 55 0 0.0 0.0 0.00 0.00 0.00 93 1020.9
20260902024605 55 0 0.0 0.0 0.00 0.00 0.00 93 1021.0
20260902024046 55 0 0.0 0.0 0.00 0.00 0.00 94 1021.0
20260902023546 55 0 0.0 0.0 0.00 0.00 0.00 94 1021.1
20260902023103 55 0 0.0 0.0 0.00 0.00 0.00 93 1021.1
20260902022546 55 0 0.0 0.0 0.00 0.00 0.00 93 1021.2
20260902022045 55 0 0.0 0.0 0.00 0.00 0.00 93 1021.1
20260902021630 55 0 0.0 0.0 0.00 0.00 0.00 93 1021.3
20260902021046 55 0 0.0 0.0 0.00 0.00 0.00 93 1021.1
20260902020546 55 0 0.0 0.0 0.00 0.00 0.00 93 1021.0
20260902020107 56 0 0.0 0.0 0.00 0.00 0.00 93 1020.9
20260902015549 56 0 0.0 0.0 0.00 0.00 0.00 93 1021.0
20260902015050 56 0 0.0 0.0 0.00 0.00 0.00 93 1021.0
20260902014614 56 0 0.0 0.0 0.00 0.00 0.00 93 1021.0
20260902014050 56 0 0.0 0.0 0.00 0.00 0.00 93 1021.0
20260902013546 56 0 0.0 0.0 0.00 0.00 0.00 93 1021.0
20260902013059 56 0 0.0 0.0 0.00 0.00 0.00 94 1021.0
20260902012545 56 0 0.0 0.0 0.00 0.00 0.00 94 1021.0
20260902012047 56 0 0.0 0.0 0.00 0.00 0.00 94 1021.3
20260902011557 56 0 0.0 0.0 0.00 0.00 0.00 94 1021.2
20260902011049 56 0 0.0 0.0 0.00 0.00 0.00 94 1021.2
20260902010546 56 0 0.0 0.0 0.00 0.00 0.00 94 1021.1
20260902010108 56 0 0.0 0.0 0.00 0.00 0.00 94 1021.1
20260902005545 56 0 0.0 0.0 0.00 0.00 0.00 95 1021.1
20260902005045 56 0 0.0 0.0 0.00 0.00 0.00 95 1021.2
20260902004603 56 0 0.0 0.0 0.00 0.00 0.00 95 1021.3
20260902004046 55 0 0.0 0.0 0.00 0.00 0.00 95 1021.3
20260902003546 55 0 0.0 0.0 0.00 0.00 0.00 95 1021.3
20260902003103 55 0 0.0 0.0 0.00 0.00 0.00 95 1021.3
20260902002545 55 0 0.0 0.0 0.00 0.00 0.00 95 1021.4
20260902002046 55 0 0.0 0.0 0.00 0.00 0.00 95 1021.2
20260902001556 55 0 0.0 0.0 0.00 0.00 0.00 95 1021.3
20260902001045 55 0 0.0 0.0 0.00 0.00 0.00 94 1021.3
20260902000545 55 0 0.0 0.0 0.00 0.00 0.00 94 1021.3
20260902000108 55 0 0.0 0.0 0.00 0.00 0.00 95 1021.3
20260901235549 55 0 0.0 0.0 0.00 0.00 0.00 95 1021.2
20260901235045 55 0 0.0 0.0 0.00 0.00 0.00 95 1021.1
20260901234605 55 0 0.0 0.0 0.00 0.00 0.00 95 1021.3
20260901234048 54 0 0.0 0.0 0.00 0.00 0.00 95 1021.4
20260901233618 54 0 0.0 0.0 0.00 0.00 0.00 95 1021.5
20260901233110 54 0 0.0 0.0 0.00 0.00 0.00 95 1021.5
20260901232542 54 0 0.0 0.0 0.00 0.00 0.00 95 1021.5
20260901232042 54 0 0.0 0.0 0.00 0.00 0.00 95 1021.5
20260901231607 54 0 0.0 0.0 0.00 0.00 0.00 95 1021.5
20260901231046 54 0 0.0 0.0 0.00 0.00 0.00 95 1021.5
20260901230546 53 0 0.0 0.0 0.00 0.00 0.00 95 1021.7
20260901230105 53 0 0.0 0.0 0.00 0.00 0.00 95 1021.8
20260901225547 54 0 0.0 0.0 0.00 0.00 0.00 95 1021.9
20260901225045 54 0 0.0 0.0 0.00 0.00 0.00 95 1022.0
20260901224605 53 0 0.0 0.0 0.00 0.00 0.00 95 1021.9
20260901224046 53 0 0.0 0.0 0.00 0.00 0.00 95 1022.0
20260901223546 53 0 0.0 0.0 0.00 0.00 0.00 95 1022.1
20260901223109 53 0 0.0 0.0 0.00 0.00 0.00 95 1022.0
20260901222545 53 0 0.0 0.0 0.00 0.00 0.00 95 1022.0
20260901222047 53 0 0.0 0.0 0.00 0.00 0.00 95 1022.1
20260901221607 54 0 0.0 0.0 0.00 0.00 0.00 94 1022.1
20260901221046 54 0 0.0 0.0 0.00 0.00 0.00 94 1022.0
20260901220545 54 0 0.0 0.0 0.00 0.00 0.00 94 1022.0
20260901220107 54 0 0.0 0.0 0.00 0.00 0.00 94 1021.9
20260901215546 54 0 0.0 0.0 0.00 0.00 0.00 94 1021.8
20260901215045 54 0 0.0 0.0 0.00 0.00 0.00 94 1021.9
20260901214601 54 0 0.0 0.0 0.00 0.00 0.00 94 1021.9
20260901214046 54 0 0.0 0.0 0.00 0.00 0.00 94 1022.0
20260901213547 54 0 0.0 0.0 0.00 0.00 0.00 94 1021.9
20260901213102 54 0 0.0 0.0 0.00 0.00 0.00 94 1021.9
20260901212546 54 0 0.0 0.0 0.00 0.00 0.00 94 1021.9
20260901212046 55 0 0.0 0.0 0.00 0.00 0.00 94 1021.8
20260901211603 55 0 0.0 0.0 0.00 0.00 0.00 93 1021.7
20260901211050 55 0 0.0 0.0 0.00 0.00 0.00 93 1021.7
20260901210545 55 0 0.0 0.0 0.00 0.00 0.00 93 1021.7
20260901210114 55 0 0.0 0.0 0.00 0.00 0.00 93 1021.7
20260901205546 55 0 0.0 0.0 0.00 0.00 0.00 93 1021.6
20260901205045 55 0 0.0 0.0 0.00 0.00 0.00 93 1021.7
20260901204559 56 0 0.0 0.0 0.00 0.00 0.00 92 1021.6
20260901204047 56 0 0.0 0.0 0.00 0.00 0.00 92 1021.6
20260901203546 56 0 0.0 0.0 0.00 0.00 0.00 92 1021.5
20260901203116 56 0 0.0 0.0 0.00 0.00 0.00 92 1021.5
20260901202548 56 0 0.0 0.0 0.00 0.00 0.00 91 1021.5
20260901202046 56 0 0.0 0.0 0.00 0.00 0.00 91 1021.6
20260901201602 57 0 0.0 0.0 0.00 0.00 0.00 90 1021.6
20260901201047 57 0 0.0 0.0 0.00 0.00 0.00 90 1021.5
20260901200546 57 0 0.0 0.0 0.00 0.00 0.00 90 1021.6
20260901200105 57 0 0.0 0.0 0.00 0.00 0.00 89 1021.5
20260901195550 58 0 0.0 0.0 0.00 0.00 0.00 89 1021.5
20260901195045 58 0 0.0 0.0 0.00 0.00 0.00 89 1021.5
20260901194615 58 0 0.0 0.0 0.00 0.00 0.00 88 1021.6
20260901194046 58 0 0.0 0.0 0.00 0.00 0.00 88 1021.5
20260901193546 59 0 0.0 0.0 0.00 0.00 0.00 87 1021.5
20260901193106 59 0 0.0 0.0 0.00 0.00 0.00 87 1021.5
20260901192547 59 0 0.0 0.0 0.00 0.00 0.00 86 1021.5
20260901192047 59 0 0.0 0.0 0.00 0.00 0.00 85 1021.6
20260901191608 59 0 0.0 0.0 0.00 0.00 0.00 83 1021.7
20260901191048 60 0 0.0 0.0 0.00 0.00 0.00 82 1021.6
20260901190545 60 0 0.0 0.0 0.00 0.00 0.00 81 1021.6
20260901190115 60 0 0.0 0.0 0.00 0.00 0.00 80 1021.6
20260901185548 61 0 0.0 0.0 0.00 0.00 0.00 80 1021.6
20260901185049 61 0 0.0 0.0 0.00 0.00 0.00 79 1021.6
20260901184601 62 0 0.0 0.0 0.00 0.00 0.00 79 1021.5
20260901184045 62 0 0.0 0.0 0.00 0.00 0.00 78 1021.5
20260901183545 62 0 0.0 0.0 0.00 0.00 0.00 79 1021.4
20260901183107 62 0 0.0 0.0 0.00 0.00 0.00 78 1021.4
20260901182546 62 0 0.0 0.0 0.00 0.00 0.00 77 1021.4
20260901182046 63 0 0.0 0.0 0.00 0.00 0.00 78 1021.4
20260901181605 63 0 0.0 0.0 0.00 0.00 0.00 78 1021.3
20260901181046 63 0 0.0 0.0 0.00 0.00 0.00 79 1021.2
20260901180545 63 0 0.0 0.0 0.00 0.00 0.00 79 1021.3
20260901180108 63 0 0.0 0.0 0.00 0.00 0.00 79 1021.3
20260901175546 63 0 0.0 0.0 0.00 0.00 0.00 79 1021.2
20260901175044 63 0 0.0 0.0 0.00 0.00 0.00 79 1021.3
20260901174622 63 0 0.0 0.0 0.00 0.00 0.00 78 1021.1
20260901174047 64 0 0.0 0.0 0.00 0.00 0.00 78 1021.1
20260901173546 64 0 0.0 0.0 0.00 0.00 0.00 78 1021.1
20260901173105 64 0 0.0 0.0 0.00 0.00 0.00 78 1021.0
20260901172549 65 0 0.0 0.0 0.00 0.00 0.00 77 1020.9
20260901172046 65 0 0.0 5.2 0.00 0.00 0.00 76 1020.9
20260901171606 66 0 0.0 5.2 0.00 0.00 0.00 74 1020.9
20260901171046 66 0 0.0 5.2 0.00 0.00 0.00 73 1020.9
20260901170546 66 0 0.0 2.6 0.00 0.00 0.00 73 1020.7
20260901170106 66 0 0.0 0.0 0.00 0.00 0.00 74 1020.8
20260901165546 66 0 0.0 4.3 0.00 0.00 0.00 74 1020.9
20260901165046 66 0 0.0 4.3 0.00 0.00 0.00 73 1020.9
20260901164602 66 0 0.0 4.3 0.00 0.00 0.00 74 1020.9
20260901164045 66 0 0.0 0.0 0.00 0.00 0.00 73 1020.9
20260901163546 66 0 0.0 0.0 0.00 0.00 0.00 72 1020.9
20260901163105 67 0 0.0 0.0 0.00 0.00 0.00 70 1020.9
20260901162545 67 0 0.0 0.0 0.00 0.00 0.00 71 1020.9
20260901162045 67 0 0.0 0.0 0.00 0.00 0.00 71 1020.9